Location: Unspecified
(22.6800°N, 112.2000°E)
Time: 03:20:28
(UTC+08:00)

Altair - Visible Passes

Search period start: 28 July 2021 00:00
Search period end: 07 August 2021 00:00
Orbit: 1501 x 1682 km, 47.2° (Epoch: 26 July)

Date Brightness Start Highest point End Pass type
(mag) Time Alt. Az. Time Alt. Az. Time Alt. Az.
28 Jul 8.1 01:46:53 46° NE 01:46:53 46° NE 01:52:51 10° NE visible
28 Jul 8.6 03:44:52 22° WNW 03:48:54 30° NNW 03:56:41 10° NNE visible
29 Jul 8.5 01:22:52 36° NE 01:22:52 36° NE 01:27:40 10° NE visible
29 Jul 8.5 03:20:51 28° WNW 03:23:36 32° NNW 03:31:36 10° NNE visible
29 Jul 9.4 05:26:49 10° NW 05:31:19 14° N 05:35:47 10° NNE visible
30 Jul 8.8 00:58:48 28° ENE 00:58:48 28° ENE 01:02:28 10° NE visible
30 Jul 8.3 02:56:48 33° NW 02:58:19 35° NNW 03:06:33 10° NNE visible
30 Jul 9.4 05:01:09 10° NW 05:05:51 15° N 05:10:31 10° NNE visible
31 Jul 9.1 00:34:43 21° ENE 00:34:43 21° ENE 00:37:15 10° NE visible
31 Jul 8.3 02:32:42 38° NW 02:33:02 38° NW 02:41:28 10° NNE visible
31 Jul 9.4 04:35:27 10° NW 04:40:23 15° NNW 04:45:18 10° NNE visible
01 Aug 9.3 00:10:35 16° ENE 00:10:35 16° ENE 00:12:01 10° NE visible
01 Aug 8.2 02:08:34 41° NNW 02:08:34 41° NNW 02:16:24 10° NNE visible
01 Aug 9.3 04:09:43 10° NW 04:14:55 16° NNW 04:20:06 10° NNE visible
01 Aug 9.5 23:46:24 11° ENE 23:46:24 11° ENE 23:46:46 10° ENE visible
02 Aug 8.3 01:44:24 41° N 01:44:24 41° N 01:51:19 10° NNE visible
02 Aug 9.3 03:43:59 10° NW 03:49:29 17° NNW 03:54:57 10° NNE visible
03 Aug 8.4 01:20:10 39° N 01:20:10 39° N 01:26:15 10° NE visible
03 Aug 9.3 03:18:14 10° WNW 03:24:04 18° NNW 03:29:49 10° NNE visible
03 Aug 9.5 05:27:54 10° NNW 05:32:47 15° N 05:37:39 10° NE visible
04 Aug 8.6 00:55:54 35° NNE 00:55:54 35° NNE 01:01:09 10° NE visible
04 Aug 9.2 02:53:53 13° NW 02:58:39 19° NNW 03:04:42 10° NNE visible
04 Aug 9.5 05:02:38 10° NNW 05:07:19 15° N 05:11:59 10° NE visible
05 Aug 8.7 00:31:35 31° NNE 00:31:35 31° NNE 00:36:03 10° NE visible
05 Aug 9.2 02:29:33 16° NW 02:33:14 20° NNW 02:39:36 10° NNE visible
05 Aug 9.6 04:37:20 10° NNW 04:41:51 14° N 04:46:21 10° NE visible
06 Aug 8.8 00:07:11 28° NNE 00:07:11 28° NNE 00:10:57 10° NE visible
06 Aug 9.1 02:05:09 19° NW 02:07:50 21° NNW 02:14:31 10° NNE visible
06 Aug 9.6 04:11:59 10° NNW 04:16:23 14° N 04:20:45 10° NE visible
06 Aug 8.9 23:42:42 24° NE 23:42:42 24° NE 23:45:50 10° NE visible
